Content
SEND FEEDBACK

Daily
Averages
Monthly
Summary
Austria

LINZ, AUSTRIA


Home > Europe > Austria
Elevation: 970 feet     Latitude: 48 14N     Longitude: 014 11E

WEATHER
 
SELECT A DAY
Number of Records: 311,094;   Date Range: 7/1/96 - 7/28/14
 
SHARE

PRINT THIS DATA

[ ← Previous Day ]
WEATHER ALMANAC - APRIL 7, 2013
[ Next Day → ]
[ °C ]   °F
Weather ElementAverageHighLow
Temperature38.6 °F41 °F (12:20 pm)35.6 °F (6:20 am)
Dewpoint32.5 °F34 °F (2:00 am)30 °F (8:00 pm)
Humidity77.7 %93 % (6:20 am)58 % (2:00 pm)
Barometer30.07 in30.14 in (11:00 am)30.01 in (11:50 pm)
Wind Speed3.5 mph6.7 mph (5:00 pm)
Weather ElementAverage
Visibility6.3 mi
Wind DirectionSSE (153.2 °)

Weather ElementTotal
Precipitation---
Heating Degree Days26.7 (Base 65)
Averaged from 55 records on April 7, 2013
WEATHER CONDITIONS BREAKOUT
WIND DIRECTION BREAKOUT
WEATHER BY HOUR - APRIL 7, 2013
[ °C ]   °F
Local TimeTemperatureDewpointHumidityBarometerVisibilityWind DirectionWind SpeedGust SpeedPrecipitationEventsConditions
12:50 AM37.4 °F33.8 °F87 %30.06 in6.2 miWest (280°)5.8 mphOvercast
1:20 AM37.4 °F33.8 °F87 %30.09 in6.2 miNNW (330°)4.6 mphOvercast
1:50 AM37.4 °F33.8 °F87 %30.09 in5.6 miSW (230°)3.5 mphOvercast
2:00 AM38.0 °F34.0 °F78 %30.13 in6.0 miSW (230°)4.5 mph
2:20 AM37.4 °F33.8 °F87 %30.06 in6.2 miVariable3.5 mphOvercast
2:50 AM37.4 °F33.8 °F87 %30.06 in5.6 miVariable1.2 mphOvercast
3:20 AM37.4 °F33.8 °F87 %30.06 in5.6 miNW (320°)2.3 mphOvercast
3:50 AM37.4 °F33.8 °F87 %30.06 in5.6 miVariable2.3 mphMostly Cloudy
4:20 AM37.4 °F33.8 °F87 %30.06 in5.0 miWNW (300°)4.6 mphMostly Cloudy
4:50 AM37.4 °F33.8 °F87 %30.06 in5.0 miNNW (330°)2.3 mphMostly Cloudy
5:00 AM37.0 °F33.0 °F82 %30.12 in5.0 miNNW (330°)2.2 mphOvercast
5:20 AM37.4 °F33.8 °F87 %30.06 in5.6 miVariable1.2 mphMostly Cloudy
5:50 AM37.4 °F33.8 °F87 %30.06 in5.0 miWNW (290°)3.5 mphMostly Cloudy
6:20 AM35.6 °F33.8 °F93 %30.06 in6.2 miWest (270°)2.3 mphMostly Cloudy
6:50 AM37.4 °F33.8 °F87 %30.06 in6.2 miNW (310°)3.5 mphMostly Cloudy
7:20 AM37.4 °F33.8 °F87 %30.06 in6.2 miNW (320°)3.5 mphMostly Cloudy
7:50 AM37.4 °F33.8 °F87 %30.06 in6.2 miNorth (350°)2.3 mphMostly Cloudy
8:00 AM37.0 °F34.0 °F83 %30.13 in6.0 miNorth (350°)2.2 mphOvercast
8:20 AM37.4 °F33.8 °F87 %30.06 in6.2 miNorth (360°)2.3 mphMostly Cloudy
8:50 AM37.4 °F33.8 °F87 %30.09 in6.2 miVariable2.3 mphMostly Cloudy
9:20 AM37.4 °F33.8 °F87 %30.09 in6.2 miNW (320°)2.3 mphMostly Cloudy
9:50 AM37.4 °F32.0 °F81 %30.09 in6.2 miVariable1.2 mphLight Drizzle
10:20 AM39.2 °F33.8 °F81 %30.09 in6.2 miVariable2.3 mphMostly Cloudy
10:50 AM39.2 °F33.8 °F81 %30.09 in6.2 miVariable2.3 mphMostly Cloudy
11:00 AM39.0 °F34.0 °F74 %30.14 in7.0 mi°2.2 mphRainLight Drizzle
11:20 AM39.2 °F33.8 °F81 %30.09 in6.2 miVariable2.3 mphMostly Cloudy
11:50 AM39.2 °F33.8 °F81 %30.09 in6.2 miWSW (250°)3.5 mphMostly Cloudy
12:20 PM41.0 °F33.8 °F76 %30.09 in6.2 miWNW (290°)3.5 mphLight Drizzle
12:50 PM41.0 °F32.0 °F70 %30.06 in6.2 miWest (280°)3.5 mphMostly Cloudy
1:20 PM41.0 °F32.0 °F70 %30.06 in6.2 miVariable2.3 mphMostly Cloudy
1:50 PM41.0 °F32.0 °F70 %30.06 in6.2 miVariable2.3 mphMostly Cloudy
2:00 PM41.0 °F31.0 °F58 %30.11 in8.0 mi°2.2 mphPartly Cloudy
2:20 PM41.0 °F32.0 °F70 %30.06 in6.2 miVariable1.2 mphMostly Cloudy
2:50 PM41.0 °F32.0 °F70 %30.06 in6.2 miVariable2.3 mphMostly Cloudy
3:20 PM41.0 °F32.0 °F70 %30.06 in6.2 miVariable2.3 mphMostly Cloudy
3:50 PM41.0 °F32.0 °F70 %30.06 in6.2 miVariable2.3 mphMostly Cloudy
4:20 PM41.0 °F33.8 °F76 %30.04 in6.2 miNNW (330°)5.8 mphRainLight Rain
4:50 PM41.0 °F32.0 °F70 %30.06 in6.2 miNNW (340°)5.8 mphMostly Cloudy
5:00 PM40.0 °F33.0 °F67 %30.09 in9.0 miNNW (340°)6.7 mphRainLight Rain Showers
5:20 PM41.0 °F32.0 °F70 %30.06 in6.2 miNNW (340°)3.5 mphMostly Cloudy
5:50 PM41.0 °F30.2 °F65 %30.04 in6.2 miNorth (360°)3.5 mphMostly Cloudy
6:20 PM39.2 °F32.0 °F75 %30.04 in6.2 miNE (50°)4.6 mphMostly Cloudy
6:50 PM39.2 °F30.2 °F70 %30.04 in6.2 miNE (50°)4.6 mphMostly Cloudy
7:20 PM39.2 °F32.0 °F75 %30.04 in6.2 miENE (60°)4.6 mphMostly Cloudy
7:50 PM39.2 °F30.2 °F70 %30.04 in6.2 miNE (40°)5.8 mphMostly Cloudy
8:00 PM39.0 °F30.0 °F60 %30.09 in9.0 miNE (40°)6.7 mphPartly Cloudy
8:20 PM39.2 °F30.2 °F70 %30.04 in6.2 miNE (40°)3.5 mphMostly Cloudy
8:50 PM39.2 °F30.2 °F70 %30.04 in6.2 miNE (40°)3.5 mphMostly Cloudy
9:20 PM37.4 °F30.2 °F75 %30.04 in6.2 miNE (50°)4.6 mphMostly Cloudy
9:50 PM37.4 °F30.2 °F75 %30.04 in6.2 miNNE (30°)4.6 mphMostly Cloudy
10:20 PM37.4 °F30.2 °F75 %30.04 in6.2 miNE (40°)3.5 mphMostly Cloudy
10:50 PM37.4 °F30.2 °F75 %30.04 in6.2 miENE (60°)4.6 mphMostly Cloudy
11:00 PM37.0 °F30.0 °F68 %30.08 in9.0 miENE (60°)4.5 mphScattered Clouds
11:20 PM37.4 °F30.2 °F75 %30.04 in6.2 miNE (50°)5.8 mphOvercast
11:50 PM37.4 °F30.2 °F75 %30.01 in6.2 miENE (60°)5.8 mphOvercast
Hourly data recorded from LOWL, located miles away from Linz, Austria







STORIES FROM OUR PARTNERS